Location: *
(45.9500°N, 9.0833°E)
Time: 20:56:40
(UTC+00:00)

Cosmos 1666 - Pass Details

Date: 03 March 2021
Orbit: 497 x 518 km, 82.5° (Epoch: 20 April)

Event Time Altitude Azimuth Distance (km) Brightness Sun altitude
Rises 18:27:40 0° 169° (SSE) 2,571 6.1 -13.7°
Reaches altitude 10° 18:29:52 10° 160° (SSE) 1,694 5.1 -14.1°
Maximum altitude 18:33:17 37° 93° (E) 793 3.1 -14.7°
Drops below altitude 10° 18:36:46 10° 25° (NNE) 1,714 5.2 -15.3°
Sets 18:38:59 0° 17° (NNE) 2,606 6.2 -15.7°
